DLH44M EDDM-LPFR

Flight info

Callsign DLH44M
Flight time 2h 50m
Altitude 35000
Route ALG2E/08R ALG Y109 UMTEX Y100 TRA DCT LUTIX DCT BENOT DCT NEMOS DCT NINTU DCT MEBAK DCT REPSI DCT LERGA DCT MINSO DCT NARAK DCT AGN DCT LATEK DCT PPN DCT MIRPO DCT DGO DCT NEA L14 ADINO DCT ELVAR DCT ALAGU DCT USALU
Aircraft A321/M-SDE3FGHIRWY/LB1

Departure

Time 2026-04-30 18:40
Airport Munich Airport (EDDM)

Arrival

Time 2026-04-30 21:31
Airport Faro - Gago Coutinho International Airport (LPFR)
Time Latitude Longitude Altitude Speed Heading
2026-04-30 18:02 48.35732 11.79694 1486 ft 0 kts 83°
2026-04-30 18:21 48.35730 11.79662 1481 ft 4 kts 83°
2026-04-30 18:21 48.35727 11.79631 1477 ft 4 kts 84°
2026-04-30 18:21 48.35724 11.79591 1482 ft 4 kts 77°
2026-04-30 18:21 48.35716 11.79559 1472 ft 4 kts 29°
2026-04-30 18:22 48.35696 11.79555 1475 ft 4 kts 355°
2026-04-30 18:22 48.35660 11.79561 1485 ft 0 kts 353°
2026-04-30 18:26 48.35660 11.79560 1468 ft 0 kts 348°
2026-04-30 18:26 48.35659 11.79548 1485 ft 1 kts 259°
2026-04-30 18:27 48.35515 11.79512 1475 ft 18 kts 173°
2026-04-30 18:27 48.35398 11.79533 1476 ft 17 kts 173°
2026-04-30 18:28 48.35155 11.79575 1485 ft 18 kts 174°
2026-04-30 18:28 48.35053 11.79591 1485 ft 12 kts 174°
2026-04-30 18:28 48.34893 11.79550 1481 ft 6 kts 174°
2026-04-30 18:29 48.34890 11.79551 1482 ft 1 kts 174°
2026-04-30 18:29 48.34775 11.79345 1485 ft 17 kts 264°
2026-04-30 18:30 48.34752 11.79046 1475 ft 18 kts 263°
2026-04-30 18:30 48.34717 11.78593 1483 ft 20 kts 263°
2026-04-30 18:31 48.34706 11.78454 1485 ft 20 kts 263°
2026-04-30 18:31 48.34673 11.78025 1485 ft 21 kts 263°
2026-04-30 18:32 48.34643 11.77656 1485 ft 22 kts 263°
2026-04-30 18:32 48.34627 11.77434 1485 ft 22 kts 263°
2026-04-30 18:32 48.34593 11.76999 1477 ft 20 kts 263°
2026-04-30 18:33 48.34577 11.76787 1483 ft 21 kts 263°
2026-04-30 18:33 48.34542 11.76340 1485 ft 22 kts 264°
2026-04-30 18:33 48.34525 11.76107 1485 ft 23 kts 264°
2026-04-30 18:34 48.34507 11.75871 1473 ft 23 kts 263°
2026-04-30 18:34 48.34472 11.75407 1485 ft 23 kts 263°
2026-04-30 18:34 48.34437 11.75233 1475 ft 16 kts 214°
2026-04-30 18:35 48.34324 11.75233 1485 ft 17 kts 173°
2026-04-30 18:35 48.34204 11.75255 1476 ft 18 kts 174°
2026-04-30 18:35 48.34106 11.75271 1485 ft 7 kts 174°
2026-04-30 18:36 48.34087 11.75331 1485 ft 0 kts 83°
2026-04-30 18:39 48.34087 11.75342 1485 ft 5 kts 83°
2026-04-30 18:39 48.34113 11.75669 1481 ft 66 kts 83°
2026-04-30 18:39 48.34192 11.76687 1480 ft 128 kts 83°
2026-04-30 18:40 48.34314 11.78278 1500 ft 175 kts 83°
2026-04-30 18:40 48.34452 11.80112 2081 ft 176 kts 84°
2026-04-30 18:40 48.34583 11.81952 2823 ft 177 kts 85°
2026-04-30 18:40 48.34721 11.83848 3117 ft 194 kts 84°
2026-04-30 18:41 48.34878 11.85951 3329 ft 211 kts 84°
2026-04-30 18:41 48.35048 11.88195 3795 ft 219 kts 84°
2026-04-30 18:41 48.35225 11.90473 4395 ft 220 kts 84°
2026-04-30 18:41 48.35405 11.92779 4976 ft 223 kts 84°
2026-04-30 18:42 48.35265 11.95101 5510 ft 228 kts 109°
2026-04-30 18:42 48.33004 11.98578 6677 ft 242 kts 140°
2026-04-30 18:42 48.31658 12.00140 7287 ft 247 kts 141°
2026-04-30 18:45 48.22292 11.76842 11704 ft 363 kts 257°
2026-04-30 18:45 48.21678 11.73201 12242 ft 367 kts 257°
2026-04-30 18:45 48.21044 11.69469 12780 ft 372 kts 257°
2026-04-30 18:46 48.20399 11.65691 13324 ft 376 kts 257°
2026-04-30 18:46 48.19746 11.61875 13858 ft 380 kts 257°
2026-04-30 18:46 48.19086 11.58018 14366 ft 384 kts 257°
2026-04-30 18:46 48.18420 11.54122 14832 ft 388 kts 257°
2026-04-30 18:47 48.17747 11.50182 15312 ft 391 kts 257°
2026-04-30 18:47 48.17066 11.46203 15811 ft 395 kts 257°
2026-04-30 18:47 48.16388 11.42247 16279 ft 398 kts 257°
2026-04-30 18:47 48.15692 11.38214 16759 ft 402 kts 257°
2026-04-30 18:48 48.14984 11.34139 17231 ft 405 kts 257°
2026-04-30 18:48 48.14268 11.30031 17702 ft 408 kts 257°
2026-04-30 18:48 48.13566 11.26018 18158 ft 411 kts 257°
2026-04-30 18:48 48.12845 11.21899 18610 ft 415 kts 258°
2026-04-30 18:49 48.12110 11.17706 19016 ft 418 kts 258°
2026-04-30 18:49 48.11368 11.13478 19437 ft 420 kts 258°
2026-04-30 18:49 48.10621 11.09224 19860 ft 422 kts 258°
2026-04-30 18:49 48.09870 11.04950 20279 ft 424 kts 258°
2026-04-30 18:50 48.09114 11.00660 20689 ft 427 kts 258°
2026-04-30 18:50 48.08366 10.96411 21095 ft 429 kts 258°
2026-04-30 18:50 48.07604 10.92089 21499 ft 431 kts 258°
2026-04-30 18:50 48.06832 10.87734 21911 ft 433 kts 258°
2026-04-30 18:51 48.06054 10.83370 22303 ft 435 kts 258°
2026-04-30 18:51 48.05271 10.78983 22704 ft 437 kts 258°
2026-04-30 18:51 48.04484 10.74582 23098 ft 439 kts 258°
2026-04-30 18:51 48.03958 10.71652 23356 ft 440 kts 258°
2026-04-30 18:52 48.02962 10.66106 23831 ft 443 kts 258°
2026-04-30 18:52 48.02158 10.61643 24169 ft 445 kts 258°
2026-04-30 18:52 48.01345 10.57143 24461 ft 447 kts 258°
2026-04-30 18:52 48.00529 10.52640 24763 ft 450 kts 258°
2026-04-30 18:53 47.99718 10.48172 25052 ft 453 kts 257°
2026-04-30 18:53 47.98885 10.43611 25358 ft 455 kts 257°
2026-04-30 18:53 47.98048 10.39036 25644 ft 458 kts 257°
2026-04-30 18:53 47.97207 10.34438 25936 ft 460 kts 257°
2026-04-30 18:54 47.96358 10.29811 26230 ft 462 kts 257°
2026-04-30 18:54 47.95506 10.25172 26526 ft 465 kts 257°
2026-04-30 18:54 47.94646 10.20500 26809 ft 467 kts 257°
2026-04-30 18:54 47.93792 10.15874 27094 ft 469 kts 257°
2026-04-30 18:55 47.92917 10.11150 27382 ft 472 kts 257°
2026-04-30 18:55 47.91153 10.01671 27942 ft 476 kts 257°
2026-04-30 18:55 47.90264 9.96911 28235 ft 478 kts 257°
2026-04-30 18:56 47.88479 9.87365 28762 ft 482 kts 256°
2026-04-30 18:56 47.87569 9.82532 29040 ft 484 kts 256°
2026-04-30 18:56 47.86651 9.77681 29315 ft 487 kts 256°
2026-04-30 18:57 47.84807 9.67945 29839 ft 490 kts 256°
2026-04-30 18:57 47.83886 9.63036 30080 ft 492 kts 258°
2026-04-30 18:57 47.83228 9.58034 30311 ft 492 kts 262°
2026-04-30 18:58 47.82042 9.48034 30727 ft 494 kts 262°
2026-04-30 18:58 47.81437 9.42989 30943 ft 495 kts 262°
2026-04-30 18:58 47.80829 9.37954 31241 ft 493 kts 262°
2026-04-30 18:59 47.79601 9.27945 31845 ft 490 kts 262°
2026-04-30 19:00 47.77768 9.13122 32726 ft 485 kts 262°
2026-04-30 19:00 47.77157 9.08199 33007 ft 484 kts 262°
2026-04-30 19:00 47.75932 8.98405 33569 ft 481 kts 262°
2026-04-30 19:01 47.74708 8.88636 34124 ft 478 kts 262°
2026-04-30 19:01 47.74104 8.83841 34385 ft 477 kts 262°
2026-04-30 19:02 47.72880 8.74176 34840 ft 474 kts 262°
2026-04-30 19:02 47.71648 8.64555 35230 ft 473 kts 262°
2026-04-30 19:03 47.70623 8.56610 35266 ft 470 kts 262°
2026-04-30 19:03 47.68915 8.45627 35280 ft 471 kts 251°
2026-04-30 19:04 47.66398 8.38420 35284 ft 474 kts 236°
2026-04-30 19:05 47.58721 8.22582 35272 ft 473 kts 235°
2026-04-30 19:06 47.51014 8.06763 35264 ft 479 kts 235°
2026-04-30 19:06 47.45096 7.94678 35247 ft 483 kts 235°
2026-04-30 19:07 47.39180 7.82656 35246 ft 483 kts 235°
2026-04-30 19:08 47.31289 7.66687 35238 ft 482 kts 234°
2026-04-30 19:09 47.25332 7.54721 35239 ft 482 kts 234°
2026-04-30 19:09 47.21355 7.46767 35243 ft 482 kts 234°
2026-04-30 19:10 47.13339 7.30998 35243 ft 482 kts 232°
2026-04-30 19:11 47.07018 7.19494 35247 ft 481 kts 231°
2026-04-30 19:12 47.02828 7.11914 35262 ft 481 kts 231°
2026-04-30 19:12 46.98641 7.04259 35251 ft 480 kts 232°
2026-04-30 19:13 46.90306 6.89050 35248 ft 479 kts 231°
2026-04-30 19:14 46.86109 6.81451 35248 ft 479 kts 231°
2026-04-30 19:14 46.81918 6.73891 35248 ft 478 kts 231°
2026-04-30 19:15 46.77751 6.66379 35246 ft 478 kts 231°
2026-04-30 19:15 46.71474 6.55098 35240 ft 477 kts 231°
2026-04-30 19:16 46.67276 6.47588 35238 ft 476 kts 231°
2026-04-30 19:17 46.61015 6.36426 35234 ft 475 kts 230°
2026-04-30 19:17 46.54733 6.25285 35227 ft 474 kts 230°
2026-04-30 19:18 46.48459 6.14190 35223 ft 472 kts 230°
2026-04-30 19:19 46.44312 6.06878 35226 ft 471 kts 230°
2026-04-30 19:19 46.38043 5.95876 35224 ft 470 kts 230°
2026-04-30 19:20 46.33901 5.88630 35221 ft 469 kts 230°
2026-04-30 19:21 46.27654 5.77727 35217 ft 468 kts 230°
2026-04-30 19:22 46.19347 5.63290 35204 ft 467 kts 230°
2026-04-30 19:23 46.07777 5.40799 35195 ft 465 kts 235°
2026-04-30 19:24 46.02273 5.29360 35194 ft 464 kts 235°
2026-04-30 19:25 45.93094 5.10393 35191 ft 461 kts 235°
2026-04-30 19:26 45.85745 4.95314 35192 ft 460 kts 235°
2026-04-30 19:27 45.80266 4.84114 35190 ft 458 kts 234°
2026-04-30 19:28 45.74759 4.72915 35193 ft 457 kts 234°
2026-04-30 19:29 45.67437 4.58082 35196 ft 456 kts 234°
2026-04-30 19:30 45.60146 4.43339 35193 ft 454 kts 234°
2026-04-30 19:31 45.52829 4.28700 35191 ft 453 kts 234°
2026-04-30 19:31 45.47326 4.17711 35195 ft 453 kts 234°
2026-04-30 19:32 45.43673 4.10436 35201 ft 453 kts 234°
2026-04-30 19:32 45.39993 4.03128 35208 ft 453 kts 234°
2026-04-30 19:33 45.36324 3.95881 35217 ft 453 kts 234°
2026-04-30 19:33 45.32633 3.88601 35231 ft 453 kts 234°
2026-04-30 19:34 45.28949 3.81335 35236 ft 453 kts 234°
2026-04-30 19:35 45.23453 3.70498 35243 ft 452 kts 236°
2026-04-30 19:35 45.19860 3.63184 35243 ft 451 kts 236°
2026-04-30 19:36 45.16287 3.55868 35241 ft 450 kts 236°
2026-04-30 19:36 45.10930 3.45007 35241 ft 448 kts 236°
2026-04-30 19:37 45.07339 3.37788 35237 ft 447 kts 236°
2026-04-30 19:37 45.03775 3.30646 35237 ft 446 kts 236°
2026-04-30 19:38 45.00194 3.23482 35237 ft 445 kts 236°
2026-04-30 19:38 44.96617 3.16337 35236 ft 444 kts 236°
2026-04-30 19:39 44.93068 3.09264 35242 ft 443 kts 236°
2026-04-30 19:39 44.90101 3.03357 35239 ft 442 kts 236°
2026-04-30 19:40 44.86265 2.95757 35237 ft 442 kts 236°
2026-04-30 19:40 44.82749 2.88658 35241 ft 441 kts 238°
2026-04-30 19:41 44.79438 2.81392 35240 ft 440 kts 239°
2026-04-30 19:41 44.76187 2.74146 35241 ft 439 kts 239°
2026-04-30 19:42 44.72870 2.66909 35239 ft 439 kts 238°
2026-04-30 19:42 44.69522 2.59717 35238 ft 438 kts 238°
2026-04-30 19:43 44.66196 2.52598 35236 ft 438 kts 238°
2026-04-30 19:44 44.61185 2.41839 35234 ft 438 kts 238°
2026-04-30 19:44 44.57831 2.34680 35236 ft 438 kts 238°
2026-04-30 19:45 44.54494 2.27576 35235 ft 438 kts 238°
2026-04-30 19:45 44.51144 2.20441 35230 ft 437 kts 238°
2026-04-30 19:46 44.47789 2.13319 35226 ft 437 kts 238°
2026-04-30 19:46 44.44454 2.06262 35219 ft 436 kts 238°
2026-04-30 19:47 44.41098 1.99176 35214 ft 436 kts 238°
2026-04-30 19:47 44.37762 1.92154 35213 ft 435 kts 238°
2026-04-30 19:48 44.34409 1.85110 35206 ft 434 kts 238°
2026-04-30 19:48 44.31055 1.78086 35209 ft 434 kts 238°
2026-04-30 19:49 44.27734 1.71095 35207 ft 433 kts 239°
2026-04-30 19:49 44.22897 1.60485 35204 ft 432 kts 240°
2026-04-30 19:50 44.19658 1.53402 35200 ft 432 kts 239°
2026-04-30 19:50 44.16402 1.46340 35195 ft 432 kts 239°
2026-04-30 19:51 44.13166 1.39356 35193 ft 432 kts 239°
2026-04-30 19:51 44.09893 1.32317 35194 ft 432 kts 239°
2026-04-30 19:52 44.06645 1.25353 35198 ft 431 kts 239°
2026-04-30 19:52 44.03377 1.18342 35193 ft 431 kts 239°
2026-04-30 19:53 44.00129 1.11388 35192 ft 430 kts 239°
2026-04-30 19:53 43.96856 1.04406 35190 ft 430 kts 239°
2026-04-30 19:54 43.93579 0.97429 35187 ft 430 kts 239°
2026-04-30 19:54 43.90311 0.90516 35188 ft 429 kts 239°
2026-04-30 19:55 43.86646 0.83944 35193 ft 432 kts 232°
2026-04-30 19:55 43.82656 0.77760 35185 ft 432 kts 232°
2026-04-30 19:56 43.78632 0.71543 35182 ft 432 kts 232°
2026-04-30 19:56 43.74631 0.65390 35183 ft 432 kts 231°
2026-04-30 19:57 43.70602 0.59198 35180 ft 432 kts 232°
2026-04-30 19:57 43.66574 0.53010 35174 ft 432 kts 231°
2026-04-30 19:58 43.62573 0.46874 35173 ft 432 kts 231°
2026-04-30 19:58 43.58542 0.40712 35170 ft 432 kts 231°
2026-04-30 19:59 43.54496 0.34550 35166 ft 432 kts 231°
2026-04-30 20:00 43.48455 0.25365 35168 ft 433 kts 231°
2026-04-30 20:00 43.44401 0.19209 35171 ft 433 kts 231°
2026-04-30 20:01 43.38332 0.10041 35172 ft 433 kts 231°
2026-04-30 20:01 43.34263 0.03903 35174 ft 434 kts 231°
2026-04-30 20:02 43.28174 -0.05262 35179 ft 434 kts 230°
2026-04-30 20:03 43.22044 -0.14461 35180 ft 434 kts 230°
2026-04-30 20:03 43.17977 -0.20532 35180 ft 435 kts 230°
2026-04-30 20:04 43.13884 -0.26643 35190 ft 435 kts 230°
2026-04-30 20:05 43.07731 -0.35799 35183 ft 435 kts 230°
2026-04-30 20:05 43.01601 -0.44904 35178 ft 434 kts 230°
2026-04-30 20:06 42.97491 -0.50972 35184 ft 435 kts 230°
2026-04-30 20:06 42.93393 -0.57013 35181 ft 436 kts 230°
2026-04-30 20:07 42.89387 -0.63224 35177 ft 433 kts 237°
2026-04-30 20:07 42.86903 -0.70579 35162 ft 430 kts 257°
2026-04-30 20:08 42.86336 -0.74574 35167 ft 429 kts 260°
2026-04-30 20:08 42.85289 -0.82612 35158 ft 430 kts 260°
2026-04-30 20:09 42.84219 -0.90658 35160 ft 431 kts 260°
2026-04-30 20:09 42.82617 -1.02707 35150 ft 432 kts 259°
2026-04-30 20:10 42.80998 -1.14763 35148 ft 433 kts 259°
2026-04-30 20:11 42.79365 -1.26832 35146 ft 433 kts 259°
2026-04-30 20:11 42.78259 -1.34937 35155 ft 434 kts 259°
2026-04-30 20:12 42.76599 -1.47026 35151 ft 434 kts 259°
2026-04-30 20:13 42.75486 -1.55081 35146 ft 435 kts 259°
2026-04-30 20:13 42.74357 -1.63187 35154 ft 436 kts 259°
2026-04-30 20:14 42.73136 -1.71289 35151 ft 436 kts 253°
2026-04-30 20:14 42.71369 -1.79131 35143 ft 436 kts 252°
2026-04-30 20:15 42.69589 -1.87042 35145 ft 437 kts 252°
2026-04-30 20:15 42.67811 -1.94906 35138 ft 437 kts 252°
2026-04-30 20:16 42.66014 -2.02816 35135 ft 438 kts 252°
2026-04-30 20:16 42.64203 -2.10736 35131 ft 438 kts 252°
2026-04-30 20:17 42.62396 -2.18599 35129 ft 438 kts 252°
2026-04-30 20:17 42.60492 -2.26491 35131 ft 439 kts 251°
2026-04-30 20:18 42.58557 -2.34360 35126 ft 439 kts 251°
2026-04-30 20:18 42.56637 -2.42202 35133 ft 440 kts 251°
2026-04-30 20:19 42.54715 -2.50082 35130 ft 440 kts 251°
2026-04-30 20:19 42.52793 -2.57918 35129 ft 440 kts 251°
2026-04-30 20:20 42.50847 -2.65810 35144 ft 441 kts 251°
2026-04-30 20:20 42.48905 -2.73695 35143 ft 441 kts 250°
2026-04-30 20:21 42.46963 -2.81534 35143 ft 441 kts 250°
2026-04-30 20:21 42.44911 -2.89351 35391 ft 436 kts 245°
2026-04-30 20:21 42.43648 -2.93055 35798 ft 431 kts 244°
2026-04-30 20:22 42.42395 -2.96725 36093 ft 428 kts 244°
2026-04-30 20:22 42.41146 -3.00389 36337 ft 427 kts 244°
2026-04-30 20:22 42.39903 -3.04039 36549 ft 427 kts 244°
2026-04-30 20:22 42.38661 -3.07683 36754 ft 426 kts 244°
2026-04-30 20:23 42.37432 -3.11285 36950 ft 426 kts 244°
2026-04-30 20:23 42.36190 -3.14919 37107 ft 426 kts 244°
2026-04-30 20:23 42.34943 -3.18557 37153 ft 426 kts 244°
2026-04-30 20:24 42.32445 -3.25831 37158 ft 426 kts 244°
2026-04-30 20:24 42.30369 -3.31872 37157 ft 426 kts 244°
2026-04-30 20:25 42.26606 -3.42764 37160 ft 426 kts 244°
2026-04-30 20:26 42.22836 -3.53655 37164 ft 427 kts 244°
2026-04-30 20:26 42.19068 -3.64509 37168 ft 427 kts 243°
2026-04-30 20:27 42.14011 -3.78967 37163 ft 427 kts 243°
2026-04-30 20:28 42.08939 -3.93423 37158 ft 427 kts 243°
2026-04-30 20:30 42.02133 -4.11176 37160 ft 425 kts 229°
2026-04-30 20:31 41.88996 -4.27039 37152 ft 425 kts 220°
2026-04-30 20:32 41.77844 -4.40056 37154 ft 426 kts 220°
2026-04-30 20:33 41.71104 -4.47879 37158 ft 426 kts 220°
2026-04-30 20:34 41.64394 -4.55640 37156 ft 427 kts 220°
2026-04-30 20:35 41.57643 -4.63439 37157 ft 427 kts 220°
2026-04-30 20:35 41.50918 -4.71189 37159 ft 427 kts 220°
2026-04-30 20:36 41.46407 -4.76359 37159 ft 427 kts 220°
2026-04-30 20:37 41.39661 -4.84074 37159 ft 427 kts 220°
2026-04-30 20:37 41.35141 -4.89247 37157 ft 427 kts 220°
2026-04-30 20:38 41.30656 -4.94368 37153 ft 427 kts 220°
2026-04-30 20:38 41.26129 -4.99514 37155 ft 427 kts 220°
2026-04-30 20:39 41.19342 -5.07208 37153 ft 427 kts 220°
2026-04-30 20:40 41.12590 -5.14875 37157 ft 427 kts 219°
2026-04-30 20:40 41.08067 -5.19992 37164 ft 427 kts 219°
2026-04-30 20:41 41.01253 -5.27659 37178 ft 427 kts 219°
2026-04-30 20:41 40.96739 -5.32726 37182 ft 427 kts 219°
2026-04-30 20:42 40.92228 -5.37784 37185 ft 427 kts 219°
2026-04-30 20:43 40.85407 -5.45406 37183 ft 427 kts 219°
2026-04-30 20:43 40.80886 -5.50458 37179 ft 427 kts 219°
2026-04-30 20:44 40.74068 -5.58070 37173 ft 427 kts 219°
2026-04-30 20:45 40.64990 -5.68160 37164 ft 427 kts 219°
2026-04-30 20:45 40.60433 -5.73206 37162 ft 427 kts 219°
2026-04-30 20:46 40.51337 -5.83237 37161 ft 427 kts 219°
2026-04-30 20:47 40.44505 -5.90779 37160 ft 427 kts 219°
2026-04-30 20:48 40.37687 -5.98258 37157 ft 426 kts 219°
2026-04-30 20:48 40.33130 -6.03245 37153 ft 426 kts 219°
2026-04-30 20:49 40.28594 -6.08206 37150 ft 426 kts 219°
2026-04-30 20:50 40.21756 -6.15683 37145 ft 426 kts 219°
2026-04-30 20:50 40.17229 -6.20613 37143 ft 426 kts 219°
2026-04-30 20:51 40.12663 -6.25573 37143 ft 426 kts 219°
2026-04-30 20:51 40.05836 -6.32969 37141 ft 426 kts 219°
2026-04-30 20:52 40.01255 -6.37921 37141 ft 426 kts 219°
2026-04-30 20:53 39.94429 -6.45297 37139 ft 426 kts 219°
2026-04-30 20:53 39.89856 -6.50228 37137 ft 426 kts 219°
2026-04-30 20:54 39.83019 -6.57572 37141 ft 426 kts 219°
2026-04-30 20:55 39.76146 -6.64939 37140 ft 426 kts 219°
2026-04-30 20:55 39.71587 -6.69811 37143 ft 426 kts 219°
2026-04-30 20:56 39.64708 -6.77144 37141 ft 426 kts 219°
2026-04-30 20:57 39.57866 -6.84433 37143 ft 426 kts 219°
2026-04-30 20:57 39.53274 -6.89307 37143 ft 426 kts 219°
2026-04-30 20:58 39.46420 -6.96569 37147 ft 426 kts 219°
2026-04-30 20:58 39.41826 -7.01429 37146 ft 425 kts 219°
2026-04-30 20:59 39.34964 -7.08670 37143 ft 425 kts 219°
2026-04-30 21:00 39.25794 -7.18295 37148 ft 425 kts 219°
2026-04-30 21:01 39.20847 -7.22471 37143 ft 426 kts 204°
2026-04-30 21:01 39.18048 -7.23724 37143 ft 427 kts 197°
2026-04-30 21:02 39.09459 -7.26708 37141 ft 428 kts 197°
2026-04-30 21:02 39.03706 -7.28730 37112 ft 429 kts 197°
2026-04-30 21:02 39.00831 -7.29738 36855 ft 427 kts 197°
2026-04-30 21:03 38.97963 -7.30739 36594 ft 427 kts 197°
2026-04-30 21:03 38.95099 -7.31741 36333 ft 426 kts 197°
2026-04-30 21:03 38.92232 -7.32743 36079 ft 425 kts 197°
2026-04-30 21:03 38.89382 -7.33736 35829 ft 424 kts 197°
2026-04-30 21:04 38.86572 -7.34714 35586 ft 422 kts 197°
2026-04-30 21:04 38.83744 -7.35698 35337 ft 420 kts 197°
2026-04-30 21:04 38.78135 -7.37644 34773 ft 413 kts 197°
2026-04-30 21:05 38.75364 -7.38605 34312 ft 411 kts 197°
2026-04-30 21:05 38.72618 -7.39555 33833 ft 408 kts 197°
2026-04-30 21:05 38.69893 -7.40497 33385 ft 403 kts 197°
2026-04-30 21:05 38.67198 -7.41429 32938 ft 398 kts 197°
2026-04-30 21:06 38.64566 -7.42341 32499 ft 394 kts 197°
2026-04-30 21:06 38.61933 -7.43254 32065 ft 389 kts 197°
2026-04-30 21:06 38.59323 -7.44157 31638 ft 385 kts 197°
2026-04-30 21:06 38.56742 -7.45048 31211 ft 381 kts 197°
2026-04-30 21:07 38.54217 -7.45917 30800 ft 378 kts 197°
2026-04-30 21:07 38.51689 -7.46786 30379 ft 374 kts 197°
2026-04-30 21:07 38.49179 -7.47648 29937 ft 370 kts 197°
2026-04-30 21:07 38.46702 -7.48498 29540 ft 365 kts 197°
2026-04-30 21:08 38.44267 -7.49337 29158 ft 360 kts 197°
2026-04-30 21:08 38.41896 -7.50156 28783 ft 355 kts 197°
2026-04-30 21:08 38.39527 -7.50969 28422 ft 350 kts 197°
2026-04-30 21:08 38.37189 -7.51770 28056 ft 345 kts 197°
2026-04-30 21:09 38.34881 -7.52561 27708 ft 342 kts 197°
2026-04-30 21:09 38.32580 -7.53352 27355 ft 341 kts 197°
2026-04-30 21:09 38.30287 -7.54136 27004 ft 340 kts 197°
2026-04-30 21:09 38.28035 -7.54906 26668 ft 338 kts 197°
2026-04-30 21:10 38.25758 -7.55686 26316 ft 337 kts 197°
2026-04-30 21:10 38.23492 -7.56460 25967 ft 335 kts 197°
2026-04-30 21:10 38.21271 -7.57219 25619 ft 333 kts 197°
2026-04-30 21:10 38.19033 -7.57982 25266 ft 332 kts 198°
2026-04-30 21:11 38.16809 -7.58738 24904 ft 330 kts 198°
2026-04-30 21:11 38.14518 -7.59520 24536 ft 354 kts 197°
2026-04-30 21:11 38.12063 -7.60362 24117 ft 372 kts 197°
2026-04-30 21:11 38.09538 -7.61179 23547 ft 375 kts 192°
2026-04-30 21:12 38.06925 -7.61452 23082 ft 377 kts 182°
2026-04-30 21:12 38.04304 -7.61441 22630 ft 376 kts 182°
2026-04-30 21:12 38.01729 -7.61439 22183 ft 374 kts 182°
2026-04-30 21:12 37.99130 -7.61443 21731 ft 372 kts 182°
2026-04-30 21:13 37.96549 -7.61448 21289 ft 369 kts 182°
2026-04-30 21:13 37.93984 -7.61455 20838 ft 367 kts 182°
2026-04-30 21:13 37.91434 -7.61461 20395 ft 365 kts 182°
2026-04-30 21:13 37.88893 -7.61464 19952 ft 363 kts 182°
2026-04-30 21:14 37.86407 -7.61468 19516 ft 361 kts 182°
2026-04-30 21:14 37.83900 -7.61470 19078 ft 359 kts 182°
2026-04-30 21:14 37.81407 -7.61471 18642 ft 356 kts 182°
2026-04-30 21:14 37.78925 -7.61469 18171 ft 354 kts 182°
2026-04-30 21:15 37.76490 -7.61466 17734 ft 352 kts 182°
2026-04-30 21:15 37.74044 -7.61464 17302 ft 350 kts 182°
2026-04-30 21:15 37.71618 -7.61462 16874 ft 347 kts 182°
2026-04-30 21:15 37.69212 -7.61461 16452 ft 345 kts 182°
2026-04-30 21:16 37.66818 -7.61465 16029 ft 342 kts 182°
2026-04-30 21:16 37.64471 -7.61471 15624 ft 339 kts 182°
2026-04-30 21:16 37.62109 -7.61477 15200 ft 337 kts 182°
2026-04-30 21:16 37.60553 -7.61479 14923 ft 336 kts 182°
2026-04-30 21:17 37.58220 -7.61480 14509 ft 333 kts 182°
2026-04-30 21:17 37.55902 -7.61479 14092 ft 332 kts 182°
2026-04-30 21:17 37.53597 -7.61477 13670 ft 329 kts 182°
2026-04-30 21:17 37.51302 -7.61474 13258 ft 328 kts 182°
2026-04-30 21:18 37.49023 -7.61472 12852 ft 327 kts 182°
2026-04-30 21:18 37.46783 -7.61472 12456 ft 325 kts 182°
2026-04-30 21:18 37.44522 -7.61473 12062 ft 323 kts 182°
2026-04-30 21:18 37.42274 -7.61477 11657 ft 322 kts 182°
2026-04-30 21:19 37.40035 -7.61480 11266 ft 320 kts 182°
2026-04-30 21:19 37.37838 -7.61478 10874 ft 319 kts 182°
2026-04-30 21:19 37.35622 -7.61475 10481 ft 317 kts 182°
2026-04-30 21:19 37.33443 -7.61473 10228 ft 301 kts 182°
2026-04-30 21:20 37.31453 -7.61469 10066 ft 275 kts 182°
2026-04-30 21:20 37.29576 -7.61465 9701 ft 264 kts 182°
2026-04-30 21:20 37.27754 -7.61468 9272 ft 260 kts 182°
2026-04-30 21:20 37.25969 -7.61473 8810 ft 259 kts 182°
2026-04-30 21:21 37.24179 -7.61477 8422 ft 257 kts 182°
2026-04-30 21:21 37.22397 -7.61479 8096 ft 255 kts 182°
2026-04-30 21:21 37.18860 -7.61482 7461 ft 252 kts 182°
2026-04-30 21:22 37.17109 -7.61485 7145 ft 251 kts 182°
2026-04-30 21:22 37.11924 -7.61489 6198 ft 247 kts 181°
2026-04-30 21:23 37.10199 -7.61487 5887 ft 248 kts 180°
2026-04-30 21:23 37.08479 -7.61632 5580 ft 249 kts 190°
2026-04-30 21:23 37.05235 -7.63145 4616 ft 251 kts 202°
2026-04-30 21:24 37.03640 -7.64029 4154 ft 250 kts 202°
2026-04-30 21:24 37.02082 -7.64888 4015 ft 236 kts 202°
2026-04-30 21:24 37.00647 -7.65681 4045 ft 214 kts 202°
2026-04-30 21:24 36.99406 -7.66514 4055 ft 200 kts 216°
2026-04-30 21:25 36.97894 -7.69359 4042 ft 199 kts 256°
2026-04-30 21:25 36.97793 -7.71075 3902 ft 197 kts 277°
2026-04-30 21:25 36.98025 -7.72761 3679 ft 196 kts 282°
2026-04-30 21:26 36.98507 -7.76089 3173 ft 192 kts 282°
2026-04-30 21:26 36.98742 -7.77717 2919 ft 189 kts 282°
2026-04-30 21:27 36.99184 -7.80799 2435 ft 166 kts 282°
2026-04-30 21:27 36.99376 -7.82140 2219 ft 148 kts 282°
2026-04-30 21:27 36.99555 -7.83381 2026 ft 142 kts 282°
2026-04-30 21:28 36.99894 -7.85745 1658 ft 137 kts 283°
2026-04-30 21:28 37.00063 -7.86921 1468 ft 137 kts 283°
2026-04-30 21:28 37.00398 -7.89264 1101 ft 136 kts 282°
2026-04-30 21:29 37.00564 -7.90422 924 ft 135 kts 281°
2026-04-30 21:29 37.01049 -7.93847 350 ft 134 kts 280°
2026-04-30 21:30 37.01377 -7.96138 63 ft 133 kts 282°
2026-04-30 21:31 37.01637 -7.97845 22 ft 9 kts 329°
2026-04-30 21:31 37.01749 -7.97745 22 ft 13 kts 66°
2026-04-30 21:32 37.01761 -7.97501 20 ft 16 kts 92°
2026-04-30 21:32 37.01821 -7.97389 20 ft 16 kts 43°
2026-04-30 21:32 37.01835 -7.97256 20 ft 17 kts 98°
2026-04-30 21:32 37.01816 -7.97104 20 ft 18 kts 99°
2026-04-30 21:33 37.01795 -7.96961 20 ft 15 kts 100°
2026-04-30 21:33 37.01887 -7.96854 20 ft 7 kts 11°
2026-04-30 21:33 37.01909 -7.96849 20 ft 0 kts 11°